Weather History for Easton, MD

Change the Weather History Date:

Saturday, August 16, 2014

  Actual Average Record
Temperature  
Mean Temperature 72 °F -  
Max Temperature 82 °F 88 °F 93 °F (1951)
Min Temperature 63 °F 65 °F 50 °F (1972)
Cooling Degree Days 8    
Growing Degree Days 22 (Base 50)    
Moisture  
Dew Point 60 °F    
Average Humidity 72    
Maximum Humidity 89    
Minimum Humidity 45    
Precipitation  
Precipitation 0.00 in - - ()
Sea Level Pressure  
Sea Level Pressure 30.04 in    
Wind  
Wind Speed 0 mph (WNW)    
Max Wind Speed 6 mph    
Max Gust Speed -    
Visibility 10 miles    
Events      
Averages and records for this station are not official NWS values.
T = Trace of Precipitation, MM = Missing Value Source: NWS Daily Summary

Daily Weather History Graph

Daily Weather History Graph

Search for Another Location

Airport:

Trip Planner

Search our weather history database for the weather conditions in past years. The results will help you decide how hot, cold, wet, or windy it might be!

Date:

Astronomy

Aug. 16, 2014 Rise Set
Actual Time 6:18 AM EDT 7:57 PM EDT
Civil Twilight 5:50 AM EDT 8:25 PM EDT
Nautical Twilight 5:16 AM EDT 8:59 PM EDT
Astronomical Twilight 4:39 AM EDT 9:36 PM EDT
Moon 11:44 PM EDT (8/16) 12:58 PM EDT (8/16)
Length of Visible Light 14h 35m
Length of Day
13h 38m
Waning Gibbous, 59% of the Moon is Illuminated
Aug 16
Waning Gibbous
Aug 17
Last Quarter
Aug 25
New
Sep 2
First Quarter
Sep 8
Full

Hourly Weather History & Observations

Time (EDT) Temp. Heat Index Dew Point Humidity Pressure Visibility Wind Dir Wind Speed Gust Speed Precip Events Conditions
12:13 AM 66.2 °F - 56.1 °F 70% 30.04 in 10.0 mi Calm Calm - N/A   Mostly Cloudy
12:33 AM 65.3 °F - 57.2 °F 75% 30.04 in 10.0 mi Calm Calm - N/A   Mostly Cloudy
12:53 AM 66.0 °F - 56.3 °F 71% 30.05 in 10.0 mi Calm Calm - N/A   Mostly Cloudy
1:33 AM 64.6 °F - 57.0 °F 76% 30.04 in 10.0 mi Calm Calm - N/A   Scattered Clouds
1:53 AM 65.7 °F - 57.9 °F 76% 30.04 in 10.0 mi Calm Calm - N/A   Overcast
2:13 AM 66.0 °F - 58.8 °F 78% 30.04 in 10.0 mi Calm Calm - N/A   Overcast
2:33 AM 65.7 °F - 58.1 °F 77% 30.04 in 10.0 mi Calm Calm - N/A   Overcast
2:53 AM 65.8 °F - 57.9 °F 76% 30.03 in 10.0 mi Calm Calm - N/A   Overcast
3:13 AM 66.2 °F - 57.6 °F 74% 30.03 in 10.0 mi Calm Calm - N/A   Overcast
3:33 AM 66.2 °F - 57.7 °F 74% 30.03 in 10.0 mi Calm Calm - N/A   Overcast
3:53 AM 66.2 °F - 57.7 °F 74% 30.03 in 10.0 mi Calm Calm - N/A   Overcast
4:13 AM 67.1 °F - 57.0 °F 70% 30.03 in 10.0 mi Calm Calm - N/A   Overcast
4:33 AM 67.1 °F - 57.7 °F 72% 30.04 in 10.0 mi Calm Calm - N/A   Overcast
4:53 AM 68.0 °F - 57.2 °F 68% 30.04 in 10.0 mi Calm Calm - N/A   Overcast
5:13 AM 65.3 °F - 60.8 °F 85% 30.04 in 10.0 mi Calm Calm - N/A   Overcast
5:33 AM 65.5 °F - 61.0 °F 85% 30.05 in 10.0 mi Calm Calm - N/A   Overcast
5:50 AM 64.4 °F - 59.0 °F 83% 30.05 in 10.0 mi Calm Calm - N/A   Clear
5:54 AM 65.7 °F - 60.3 °F 83% 30.04 in 10.0 mi Calm Calm - N/A   Mostly Cloudy
6:14 AM 63.9 °F - 60.3 °F 88% 30.04 in 10.0 mi Calm Calm - N/A   Clear
6:26 AM 63.7 °F - 60.4 °F 89% 30.05 in 10.0 mi Calm Calm - N/A   Clear
6:50 AM 64.4 °F - 59.0 °F 83% 30.05 in 10.0 mi Calm Calm - N/A   Scattered Clouds
7:45 AM 68.0 °F - 59.0 °F 73% 30.05 in 10.0 mi Calm Calm - N/A   Scattered Clouds
8:50 AM 71.6 °F - 62.6 °F 73% 30.06 in 10.0 mi Calm Calm - N/A   Clear
10:00 AM 75.2 °F - 62.6 °F 65% 30.06 in 10.0 mi Calm Calm - N/A   Scattered Clouds
10:50 AM 77.0 °F - 64.4 °F 65% 30.06 in 10.0 mi Calm Calm - N/A   Scattered Clouds
11:45 AM 77.0 °F - 64.4 °F 65% 30.06 in 10.0 mi Calm Calm - N/A   Mostly Cloudy
12:45 PM 78.8 °F - 66.2 °F 65% 30.04 in 10.0 mi Calm Calm - N/A   Mostly Cloudy
1:55 PM 80.6 °F 82.7 °F 66.2 °F 61% 30.04 in 10.0 mi Calm Calm - N/A   Mostly Cloudy
2:50 PM 82.4 °F 83.9 °F 64.4 °F 54% 30.02 in 10.0 mi Calm Calm - N/A   Scattered Clouds
3:50 PM 82.4 °F 83.4 °F 62.6 °F 51% 30.01 in 10.0 mi WNW 5.8 mph - N/A   Scattered Clouds
6:50 PM 80.6 °F 80.8 °F 57.2 °F 45% 29.99 in 10.0 mi Calm Calm - N/A   Clear
7:50 PM 77.0 °F - 59.0 °F 54% 30.00 in 10.0 mi Calm Calm - N/A   Clear
8:50 PM 73.4 °F - 59.0 °F 61% 29.99 in 10.0 mi Calm Calm - N/A   Clear
11:56 PM 68.0 °F - 63.9 °F 87% 29.99 in 10.0 mi Calm Calm - N/A   Clear